Regional Weather Roundup
Issued by NWS Charleston, SC

Current Version | Previous Version | Graphics & Text | Print | Product List | Glossary Off
Versions: 1 2 3 4 5 6 7 8 9 10 11 12 13 14 15 16 17 18 19 20 21 22 23 24 25 26 27 28 29 30 31 32 33 34 35 36 37 38 39 40 41 42 43 44 45 46 47 48 49 50

000
ASUS42 KCHS 310127
RWRCHS

REGIONAL WEATHER ROUNDUP
NATIONAL WEATHER SERVICE CHARLESTON SC
900 PM EDT THU JUL 30 2015

NOTE: "FAIR" INDICATES FEW OR NO CLOUDS BELOW 12,000 FEET WITH NO
SIGNIFICANT WEATHER AND/OR OBSTRUCTIONS TO VISIBILITY.

NOT ALL STATIONS ARE QUALITY CONTROLLED BY THE NATIONAL
WEATHER SERVICE. USE DATA WITH CAUTION...ESPECIALLY
DEWPOINT OBSERVATIONS.

SCZ027-030-031-034>040-042>050-310200-
...SOUTHEAST SOUTH CAROLINA...

CITY           SKY/WX    TMP DP  RH WIND       PRES   REMARKS
N CHARLESTON   MOCLDY    85  71  63 SW3       29.89R HX  90
WATERFRONT PRK   N/A     86  72  62 SW5       29.87R HX  92
MOUNT PLEASANT LGT RAIN  82  72  69 NW5       29.90R
JOHNS ISLAND   MOCLDY    84  73  70 CALM      29.90R HX  91
PINOPOLIS      NOT AVBL
MONCKS CORNER  LGT RAIN  82  75  78 CALM      29.89R
SUMMERVILLE    NOT AVBL
BEAUFORT MCAS  MOCLDY    86  72  62 SW6       29.89S HX  92
BEAUFORT ARPT  MOCLDY    86  73  66 CALM      29.89S HX  93
HILTON HEAD IS PTCLDY    84  77  79 S8        29.91S HX  94
WALTERBORO     MOCLDY    81  79  94 S5        29.91R
ALLENDALE      FAIR      79  77  94 CALM      29.89R

...SOUTHERN MIDLANDS AND PEE DEE...

CITY           SKY/WX    TMP DP  RH WIND       PRES   REMARKS
GEORGETOWN     NOT AVBL
KINGSTREE      NOT AVBL
ORANGEBURG     MOCLDY    81  73  76 CALM      29.89S
BARNWELL       FAIR      79  77  94 CALM      29.90S
AIKEN          FAIR      81  70  69 S5        29.94R
MANNING        FAIR      82  72  69 CALM      29.89R
COLUMBIA       MOCLDY    89  72  56 SW7       29.87R HX  96
SUMTER         MOCLDY    81  74  79 SW6       29.86R
FLORENCE       PTCLDY    88  73  61 NE3       29.87R HX  95
MYRTLE BEACH   CLEAR     84  73  70 S9        29.90R HX  91
N MYRTLE BEACH PTCLDY    83  76  79 S7        29.88R HX  91

$$

GAZ063-065-086>088-099>101-113>116-118-119-134>141-150-310200-
...SOUTHEAST GEORGIA...

CITY           SKY/WX    TMP DP  RH WIND       PRES   REMARKS
SAVANNAH ARPT  MOCLDY    85  70  60 S7        29.90R
HUNTER AAF     PTCLDY    85  77  77 S3        29.88R HX  94
FORT STEWART   PTCLDY    85  74  68 SE6       29.88S HX  93
STATESBORO     PTCLDY    87  77  71 CALM      29.90R HX  99
SYLVANIA       MOCLDY    86  77  73 SE3       29.91R HX  97
CLAXTON        FAIR      82  77  83 CALM      29.90R HX  91

...CSRA...CENTRAL AND FAR SOUTHEAST GEORGIA...

CITY           SKY/WX    TMP DP  RH WIND       PRES   REMARKS
THOMSON        PTCLDY    85  76  74 CALM      29.95R HX  95
AUGUSTA-BUSH   LGT RAIN  82  75  79 S5        29.88R
AUGUSTA-DANIEL MOCLDY    85  74  69 CALM      29.91R HX  92
SWAINSBORO     FAIR      86  79  79 CALM      29.92R HX  99
VIDALIA        PTCLDY    86  75  70 SW3       29.91R HX  95
EASTMAN        FAIR      79  77  94 CALM      29.95R
HAZLEHURST     FAIR      85  80  85 CALM      29.91R HX  99
ALMA           CLEAR     84  76  76 SW6       29.91R HX  93
WAYCROSS       CLEAR     84  78  83 SW5       29.93R HX  94
JESUP          CLOUDY    88  77  70 SW5       29.92R HX 100
BAXLEY         FAIR      84  79  84 CALM      29.91R HX  96
BRUNSWICK      MOCLDY    86  73  66 S5        29.93R HX  93
SAINT SIMONS   CLEAR     84  73  69 S3        29.91R HX  90

$$

SCZ027-028-034-036>038-045-046-048>050-GAZ119-141-310200-
...LAKE AND SUPPLEMENTAL COASTAL OBSERVATIONS...

STATION/POSITION TIME  TEMP    WIND        PRES    WAVE   SWELL
                       AIR SEA DIR/SP/G            HT/PER HT/PER/DIR
                 (UTC) (F)     (DEG/KT/KT) (MB)    (FT/S) (FT/S/D)
UPR LAKE MARION  NOT AVBL
WINYAH BAY       0000   85     230/  5     1010.0S
LAKE MURRAY      0000   88     250/  3/  5 1010.8R
ACE BASIN NERRS  0000   86        CALM     1012.0R
FORT PULASKI     0100   85 87  190/  5/  9 1013.0R
SAPELO ISLAND    0100   85     150/  5     1013.0S

$$

ANZ835-935-AMZ111-154-330-350-352-354-370-450-454-472-310200-
...C-MAN AND BUOY OBSERVATIONS...

STATION/POSITION TIME  TEMP    WIND        PRES    WAVE   SWELL
                       AIR SEA DIR/SP/G            HT/PER HT/PER/DIR
                 (UTC) (F)     (DEG/KT/KT) (MB)    (FT/S) (FT/S/D)
BUOY 41004       0050   85 85  240/  8/ 10 1011.8R   2/ 8   2/ 8
BUOY 41008       0050   82 83  190/ 10/ 12 1013.0R   2/ 7   2/ 90/ 7
FOLLY BEACH CMAN 0100   85     220/  8/ 11 1012.4R
CAPERS NEARSHORE 0008   84     220/ 12/ 14 1012.0R
FRIPP NEARSHORE  0000   86     220/ 12/ 14 1011.7


STATION/POSITION TIME  TEMP    WIND        PRES    WAVE   SWELL
                       AIR SEA DIR/SP/G            HT/PER HT/PER/DIR
                 (UTC) (F)     (DEG/KT/KT) (MB)    (FT/S) (FT/S/D)
5E ST. MARYS GA  0021      85                N/A     2/ 7
FRYING PAN BUOY  0050   85 85  110/  8/  8 1011.6R   4/ 7   3/150/ 7
BUOY 41025       0050   83 86  170/ 16/ 19 1012.8R   4/ 8   2/150/ 8
CAPE LOOKOUT NC  0100   82     160/ 10/ 11 1011.9R
BUOY 41002       0050   80 81  220/ 23/ 29 1012.8R  12/ 9
BUOY 41010       0020   84 84  220/ 12/ 14 1015.1R
ST AUGUSTINE FL  0100   79 83  240/  7/ 10 1015.0R


$$



USA.gov is the U.S. government's official web portal to all federal, state and local government web resources and services.